Weather History for Pompano Beach, FL

Change the Weather History Date:

Tuesday, July 23, 2013

  Actual Average Record
Temperature  
Mean Temperature 85 °F -  
Max Temperature 91 °F 90 °F 97 °F (2005)
Min Temperature 80 °F 73 °F 62 °F (1974)
Cooling Degree Days 20    
Growing Degree Days 35 (Base 50)    
Moisture  
Dew Point 74 °F    
Average Humidity 72    
Maximum Humidity 82    
Minimum Humidity 55    
Precipitation  
Precipitation 0.01 in - - ()
Sea Level Pressure  
Sea Level Pressure 30.06 in    
Wind  
Wind Speed 6 mph (South)    
Max Wind Speed 15 mph    
Max Gust Speed 16 mph    
Visibility 9 miles    
Events Rain    
Averages and records for this station are not official NWS values.
T = Trace of Precipitation, MM = Missing Value Source: NWS Daily Summary

Daily Weather History Graph

Daily Weather History Graph

Search for Another Location

Airport:

Trip Planner

Search our weather history database for the weather conditions in past years. The results will help you decide how hot, cold, wet, or windy it might be!

Date:

Astronomy

Jul. 23, 2013 Rise Set
Actual Time 6:41 AM EDT 8:12 PM EDT
Civil Twilight 6:16 AM EDT 8:37 PM EDT
Nautical Twilight 5:46 AM EDT 9:07 PM EDT
Astronomical Twilight 5:14 AM EDT 9:38 PM EDT
Moon 8:54 PM EDT (7/23) 7:36 AM EDT (7/23)
Length of Visible Light 14h 21m
Length of Day
13h 30m
Full, 99% of the Moon is Illuminated
Jul 23
Full
Jul 29
Last Quarter
Aug 6
New
Aug 14
First Quarter
Aug 20
Full

Hourly Weather History & Observations

Time (EDT) Temp. Heat Index Dew Point Humidity Pressure Visibility Wind Dir Wind Speed Gust Speed Precip Events Conditions
12:53 AM 82.9 °F 89.4 °F 73.9 °F 74% 30.12 in 10.0 mi SSE 6.9 mph - N/A   Unknown
1:53 AM 82.9 °F 88.8 °F 73.0 °F 72% 30.10 in 10.0 mi South 5.8 mph - N/A   Unknown
2:53 AM 82.0 °F 87.9 °F 73.9 °F 76% 30.09 in 10.0 mi West 3.5 mph - N/A   Unknown
3:53 AM 80.1 °F 84.5 °F 73.9 °F 81% 30.09 in 10.0 mi West 3.5 mph - N/A   Unknown
4:53 AM 81.0 °F 86.2 °F 73.9 °F 79% 30.08 in 10.0 mi Calm Calm - N/A   Unknown
5:53 AM 80.1 °F 84.5 °F 73.9 °F 81% 30.08 in 10.0 mi Calm Calm - N/A   Unknown
6:53 AM 80.1 °F 84.5 °F 73.9 °F 81% 30.09 in 10.0 mi Calm Calm - N/A   Unknown
7:53 AM 81.0 °F 86.7 °F 75.0 °F 82% 30.10 in 10.0 mi Calm Calm - N/A   Scattered Clouds
8:53 AM 84.9 °F 94.1 °F 75.9 °F 74% 30.11 in 10.0 mi SW 4.6 mph - N/A   Unknown
9:53 AM 87.1 °F 96.3 °F 75.0 °F 67% 30.10 in 10.0 mi Variable 5.8 mph - N/A   Unknown
10:53 AM 86.0 °F 96.0 °F 75.9 °F 72% 30.10 in 6.0 mi ESE 8.1 mph - N/A   Haze
11:53 AM 84.9 °F 94.1 °F 75.9 °F 74% 30.10 in 10.0 mi SE 9.2 mph - N/A Rain Light Rain
12:53 PM 88.0 °F 98.5 °F 75.9 °F 67% 30.09 in 10.0 mi SE 11.5 mph 16.1 mph 0.01 in   Scattered Clouds
1:53 PM 88.0 °F 101.3 °F 78.1 °F 72% 30.07 in 7.0 mi SSE 10.4 mph - N/A   Scattered Clouds
2:53 PM 90.0 °F 96.9 °F 72.0 °F 55% 30.04 in 10.0 mi SE 9.2 mph - N/A   Scattered Clouds
3:53 PM 89.1 °F 98.0 °F 73.9 °F 61% 30.02 in 10.0 mi SSE 12.7 mph - N/A   Unknown
4:53 PM 89.1 °F 98.0 °F 73.9 °F 61% 30.01 in 10.0 mi SSE 13.8 mph - N/A   Unknown
5:53 PM 89.1 °F 99.1 °F 75.0 °F 63% 30.00 in 10.0 mi SSE 11.5 mph - N/A   Unknown
6:53 PM 87.1 °F 95.4 °F 73.9 °F 65% 30.00 in 10.0 mi SSE 15.0 mph - N/A   Unknown
7:53 PM 84.9 °F 91.4 °F 73.0 °F 67% 29.99 in 10.0 mi SSE 11.5 mph - N/A   Unknown
8:53 PM 84.9 °F 91.4 °F 73.0 °F 67% 29.99 in 10.0 mi South 8.1 mph - N/A   Unknown
9:53 PM 84.9 °F 91.4 °F 73.0 °F 67% 30.03 in 10.0 mi WSW 6.9 mph - N/A   Unknown
10:05 PM 84.2 °F 92.3 °F 75.2 °F 74% 30.03 in 1.5 mi West 9.2 mph - N/A Rain Heavy Rain
10:26 PM 82.4 °F 89.5 °F 75.2 °F 79% 30.03 in 3.0 mi South 6.9 mph - N/A Rain Light Rain
10:53 PM 82.0 °F 88.6 °F 75.0 °F 79% 30.04 in 10.0 mi Calm Calm - N/A   Unknown
11:53 PM 82.9 °F 89.4 °F 73.9 °F 74% 30.04 in 10.0 mi SSW 5.8 mph - N/A   Unknown